Zurück zum Katalog

STARLINK-11607

AktivKommunikationVLEO
NORAD 63140·PAYLOAD·🇺🇸 United States

Gestartet Mar 3, 2025 von Cape Canaveral Space Force Station

Loading…

Nächste Überflüge (nächste 24 Stunden)

TLE

AktuellSource: CelesTrak SupGP

Epoche: Sep 14, 2026, 15:05 UTC

1 63140C 25043J   26257.62895833  .00047370  00000+0  36778-3 0  2575
2 63140  43.0009 191.5807 0001317 273.4453 329.1184 15.70824858    10

Verfolge STARLINK-11607 in Echtzeit mit AllMySat

Download on the App Store